Showing default

FLOCK 4G 30, 62679

Orbit data source: Space-Track

FLOCK 4G 30, 62679 is a payload satellite owned by Planet (US) in SSO that was launched on Tue, 14 Jan 2025 UTC via an FALCON 9 launch vehicle from the Air Force Western Test Range (AFWTR). Payload-class satellites include a variety of spacecraft equipped with specific instruments for various scientific and technological missions. These include communications satellites like Starlink; space stations such as the ISS; scientific satellites like the Hubble; Earth observation satellites from companies like Planet Labs, Umbra, and HawkEye 360; GPS; miniature CubeSats for education and research; and military/defense satellites.

Loading next visibility...
Identifier
62679, 2025-009BY
Orbit
SSO
Country
Flag of USUS
Related business
Manufacturer
Planet
Mission
Partially operational Commercial Imaging
Bus & Motor
CUBESAT 3U, Unknown motor
Mass
5.7 kg wet, 5.7 kg dry
Launch date (UTC)
2025-01-14 (1 year ago)
Launch vehicle
FALCON 9
Launch site
Air Force Western Test Range (AFWTR)
Object type
Payload
Rocket body
Debris
Shape & HBR
Box + 2 Pan, 1.0 m
Radar Cross Section
0.072 m², Medium (>0.1 m² and < 1m²)

Expand to show TLE details & history
Last TLE update: 9 hours ago

TLE from 9 hours ago
0 FLOCK 4G 30
1 62679U 25009BY  26126.20444381  .00032831  00000-0  11509-2 0  9994
2 62679  97.3925 207.6607 0005130 123.3925 236.7806 15.29376931130124
Epoch: 2026-05-06T04:54Z
TLE epoch observation values (Epoch: 2026-05-06T04:54:23.945Z)
Latitude
-0.00007°
Longitude
-90.00735°
Altitude
482.706 km
Speed
7.623 km/s
True Right ascension
13h 50m 38s
True Declination
0° 00' 00"
Sunlit
Object was in full shadow at epoch
Visualization orbit readout
Latitude
Unknown
Longitude
Unknown
Altitude
Unknown
Speed
Unknown
Apparent Right ascension
Unknown
Apparent Declination
Unknown
Sunlit
N/A
Visualization observer readout
Local Sidereal Time
21:22:26
Azimuth
Unknown
Elevation
Unknown
Doppler factor
Unknown
Orbital elements
Apogee altitude
478.142 km
Perigee altitude
471.111 km
Semi-major axis
6,852.763 km
Eccentricity
0.00051
Inclination
97.3925°
RAAN
207.6607°
Arg. of periapsis
123.3925°
True anomaly
236.73144°
Mean anomaly
236.7806°
Eccentric anomaly
236.75602°
Mean motion
3.826 °/min
Orbital period
94.09 mins
BSTAR
0.0011509
Loading maneuver chart data...
Computing Atmospheric mass density...
Loading historical data...
Loading historical data...
Loading historical data...
Loading historical data...
Loading historical data...
Loading historical data...
Loading historical data...

Documentation

Showing up to 5 results
|